Weather History for Lee's Summit, MO

Change the Weather History Date:

Sunday, October 6, 2013

  Actual Average (KMKC) Record (KMKC)
Temperature  
Mean Temperature 51 °F -  
Max Temperature 60 °F 69 °F 89 °F (1997)
Min Temperature 42 °F 49 °F 36 °F (2000)
Degree Days  
Heating Degree Days 14    
Growing Degree Days 1 (Base 50)    
Moisture  
Dew Point 38 °F    
Average Humidity 63    
Maximum Humidity 77    
Minimum Humidity 47    
Precipitation  
Precipitation 0.00 in - - ()
Sea Level Pressure  
Sea Level Pressure 29.92 in    
Wind  
Wind Speed 10 mph (West)    
Max Wind Speed 17 mph    
Max Gust Speed 29 mph    
Visibility 10 miles    
Events      
Averages and records for this station are not official NWS values.
T = Trace of Precipitation, MM = Missing Value Source: NWS Daily Summary

Daily Weather History Graph

Daily Weather History Graph

Search for Another Location

Airport:

Trip Planner

Search our weather history database for the weather conditions in past years. The results will help you decide how hot, cold, wet, or windy it might be!

Date:

Astronomy

Oct. 06, 2013 Rise Set
Actual Time 7:18 AM CDT 6:51 PM CDT
Civil Twilight 6:51 AM CDT 7:18 PM CDT
Nautical Twilight 6:20 AM CDT 7:49 PM CDT
Astronomical Twilight 5:49 AM CDT 8:20 PM CDT
Moon 9:02 AM CDT (10/6) 7:53 PM CDT (10/6)
Length of Visible Light 12h 26m
Length of Day
11h 33m
Waxing Crescent, 3% of the Moon is Illuminated
Oct 6
Waxing Crescent
Oct 11
First Quarter
Oct 18
Full
Oct 26
Last Quarter
Nov 3
New

Hourly Weather History & Observations

Time (CDT) Temp. Windchill Dew Point Humidity Pressure Visibility Wind Dir Wind Speed Gust Speed Precip Events Conditions
12:53 AM 45.0 °F 41.8 °F 36.0 °F 71% 29.91 in 10.0 mi SW 5.8 mph - N/A   Clear
1:53 AM 46.9 °F - 34.0 °F 61% 29.90 in 10.0 mi WSW 10.4 mph 18.4 mph N/A   Clear
2:53 AM 46.0 °F 41.4 °F 33.1 °F 61% 29.89 in 10.0 mi West 9.2 mph 19.6 mph N/A   Clear
3:53 AM 44.1 °F 39.0 °F 34.0 °F 68% 29.87 in 10.0 mi WSW 9.2 mph - N/A   Clear
4:53 AM 43.0 °F 37.7 °F 34.0 °F 71% 29.87 in 10.0 mi WSW 9.2 mph - N/A   Clear
5:53 AM 42.1 °F 37.1 °F 34.0 °F 73% 29.87 in 10.0 mi WSW 8.1 mph - N/A   Clear
6:53 AM 42.1 °F 37.1 °F 35.1 °F 76% 29.89 in 10.0 mi WSW 8.1 mph - N/A   Scattered Clouds
7:53 AM 45.0 °F 40.1 °F 36.0 °F 71% 29.89 in 10.0 mi West 9.2 mph - N/A   Overcast
8:13 AM 46.4 °F 41.9 °F 35.6 °F 66% 29.89 in 10.0 mi West 9.2 mph - N/A   Overcast
8:53 AM 46.9 °F - 37.0 °F 68% 29.90 in 10.0 mi West 9.2 mph 18.4 mph N/A   Overcast
9:53 AM 48.9 °F - 37.9 °F 66% 29.91 in 10.0 mi West 15.0 mph 20.7 mph N/A   Mostly Cloudy
10:29 AM 51.8 °F - 39.2 °F 62% 29.91 in 10.0 mi West 11.5 mph 20.7 mph N/A   Mostly Cloudy
10:53 AM 52.0 °F - 37.9 °F 59% 29.93 in 10.0 mi WNW 12.7 mph 24.2 mph N/A   Mostly Cloudy
11:53 AM 53.1 °F - 37.9 °F 57% 29.94 in 10.0 mi West 17.3 mph 23.0 mph N/A   Overcast
12:53 PM 54.0 °F - 39.0 °F 57% 29.94 in 10.0 mi West 13.8 mph 19.6 mph N/A   Mostly Cloudy
1:53 PM 55.0 °F - 37.9 °F 53% 29.92 in 10.0 mi West 10.4 mph 20.7 mph N/A   Mostly Cloudy
2:53 PM 57.0 °F - 39.0 °F 51% 29.90 in 10.0 mi West 10.4 mph 21.9 mph N/A   Mostly Cloudy
3:53 PM 60.1 °F - 39.9 °F 47% 29.89 in 10.0 mi WSW 12.7 mph - N/A   Mostly Cloudy
4:53 PM 57.9 °F - 41.0 °F 53% 29.90 in 10.0 mi West 9.2 mph - N/A   Overcast
5:53 PM 57.9 °F - 42.1 °F 56% 29.92 in 10.0 mi West 17.3 mph 25.3 mph N/A   Overcast
6:53 PM 55.9 °F - 42.1 °F 60% 29.95 in 10.0 mi NW 15.0 mph 21.9 mph N/A   Overcast
7:53 PM 55.0 °F - 42.1 °F 62% 29.96 in 10.0 mi NW 16.1 mph 23.0 mph N/A   Overcast
8:53 PM 54.0 °F - 42.1 °F 64% 29.98 in 10.0 mi NW 10.4 mph 28.8 mph N/A   Overcast
9:53 PM 54.0 °F - 43.0 °F 66% 30.00 in 10.0 mi NW 13.8 mph 19.6 mph N/A   Overcast
10:53 PM 52.0 °F - 43.0 °F 71% 30.01 in 10.0 mi NW 8.1 mph - N/A   Partly Cloudy
11:53 PM 50.0 °F - 43.0 °F 77% 30.01 in 10.0 mi WNW 5.8 mph - N/A   Clear